Theta_e
343 341 341 340 337 337 338 343 346 350 352 350 350 349 348 345 345 344 342 341 338 332
344 343 342 339 339 338 339 345 347 349 351 351 351 350 349 347 345 346 344 342 342 338
345 344 344 341 338 337 339 342 347 348 349 352 352 351 349 348 347 346 346 346 341 341
345 345 345 342 342 342 341 340 342 347 348 349 352 351 349 348 350 347 347 347 345 343
344 344 346 347 343 342 342 343 344 344 348 349 350 352 350 348 350 349 348 348 346 346
344 343 342 343 348 347 343 342 341 347 348 348 349 350 352 351 349 348 349 350 348 349
344 345 346 344 343 346 349 346 343 342 346 351 351 351 351 353 351 349 349 350 351 350
344 346 347 348 347 345 346 348 348 346 344 350 352 353 352 351 352 351 350 351 350 351
344 345 348 350 350 349 346 345 348 347 347 346 350 341 340 349 351 350 350 350 351 351
346 346 346 349 351 352 349 348 345 346 347 346 348 335 335 340 352 350 349 349 349 349
346 347 349 348 349 350 353 352 350 347 348 348 349 334 332 336 349 351 351 351 351 350
347 346 348 350 350 351 351 353 353 352 350 349 351 329 329 332 348 350 351 352 352 352
346 347 348 349 351 353 353 353 354 354 355 345 351 332 326 330 349 348 350 352 353 337
347 348 350 351 352 353 353 354 354 354 355 356 352 352 323 322 350 352 351 351 352 354
Wind_Speed
13 9 9 9 6 5 5 7 6 9 7 7 7 6 6 4 4 5 5 7 5 3
13 13 11 9 9 7 6 6 6 8 9 7 7 8 7 5 6 5 5 6 6 4
15 14 11 9 11 9 8 7 7 7 7 6 8 9 9 6 5 6 5 5 6 5
14 13 12 10 11 11 9 9 9 7 7 8 9 8 8 8 8 9 8 6 6 8
14 13 13 13 11 11 12 8 8 7 8 9 10 10 11 11 11 11 10 10 7 9
15 14 14 14 13 10 11 11 8 9 9 9 10 10 11 12 12 11 12 11 10 11
16 16 15 14 14 13 13 12 11 11 12 12 11 11 10 11 12 11 11 11 11 11
17 16 15 15 15 14 13 15 14 14 12 12 13 10 12 12 12 12 12 11 11 12
15 15 16 15 15 13 13 14 13 14 15 14 11 15 18 15 12 13 13 13 12 13
14 15 16 14 13 14 14 12 14 14 14 16 16 17 18 19 14 12 13 14 14 12
15 16 15 15 15 14 13 14 14 14 15 15 14 15 18 18 16 14 14 15 15 15
16 16 15 16 16 15 13 12 14 15 15 16 15 16 18 14 13 15 17 15 14 14
14 15 16 16 16 14 12 13 11 13 14 16 15 15 18 16 10 14 11 13 15 16
13 14 14 12 11 11 12 11 12 13 12 14 14 14 18 19 14 11 10 11 10 10
Wind_Direction
195 191 192 190 186 201 197 204 199 207 203 204 187 194 200 194 209 195 205 213 215 224
196 194 195 182 189 198 199 211 203 199 206 201 193 189 191 203 210 198 213 219 213 212
199 199 198 179 189 192 200 209 207 198 199 193 203 198 189 206 206 202 219 220 212 217
199 196 198 196 197 198 198 202 210 199 193 196 208 200 198 204 207 207 225 218 212 229
192 189 196 204 204 197 202 197 195 192 196 204 211 203 208 212 213 213 222 227 209 233
197 192 197 201 202 194 204 204 196 198 205 205 213 210 211 215 215 212 220 227 218 229
197 199 201 202 201 201 203 203 203 205 214 212 212 213 208 214 219 218 217 222 223 227
199 198 201 205 203 205 201 210 209 213 213 213 217 213 209 211 216 219 224 223 225 227
195 196 204 206 206 203 205 208 207 211 215 215 221 218 208 210 215 217 223 231 232 232
196 200 204 204 204 206 206 202 208 214 214 220 223 218 212 211 225 222 223 228 235 238
195 199 200 202 206 208 204 205 206 213 216 220 227 208 212 213 223 232 232 230 232 236
196 199 196 202 205 209 207 206 211 215 214 217 226 210 207 199 221 230 236 236 233 233
196 202 201 204 206 208 208 215 214 219 219 219 225 211 203 198 217 230 235 239 241 233
193 201 203 204 204 206 208 212 216 221 221 223 215 223 200 200 217 228 234 238 241 237